Location: Castelbiague
(43.0361°N, 0.9246°E)
Time: 08:46:43
(UTC+00:00)

USA 215 - Pass Details

Date: 20 October 2021
Orbit: 1099 x 1109 km, 123.0° (Epoch: 20 November)

Event Time Altitude Azimuth Distance (km) Brightness Sun altitude
Exits shadow 20:19:03 26° 7° (N) 2,008 4.7 -35.7°
Maximum altitude 20:19:14 26° 5° (N) 2,007 4.7 -35.7°
Drops below altitude 10° 20:24:27 10° 312° (NW) 2,965 6.2 -36.6°
Sets 20:27:20 0° 300° (WNW) 3,925 7.1 -37.1°
